Temperature
17 17 17 17 17 17 17 17 17 17 17 17 17 17 17 17 17 17 17 17 17 17 17 17 17 17 17 17 17 17 16 16 16 16 16 16 16 16 16 16 16 16 15
18 18 17 17 17 17 17 17 17 17 17 17 17 17 17 17 17 17 17 17 17 17 17 17 17 17 17 17 17 16 16 16 16 16 16 16 16 16 16 16 16 16 15
18 18 17 17 17 17 17 17 17 17 17 17 17 17 17 17 17 17 17 17 17 17 17 17 17 17 17 17 16 16 16 16 16 16 16 16 16 16 16 16 16 16 15
17 17 17 17 17 17 17 17 17 17 17 17 17 17 17 17 17 17 17 17 17 17 17 17 17 17 16 16 16 16 16 16 16 16 16 16 16 16 16 16 16 16 15
17 17 17 17 17 17 17 17 17 17 17 17 17 17 17 17 17 17 17 17 17 17 16 16 16 16 16 16 16 16 16 16 16 16 16 16 16 16 16 16 16 16 15
17 17 17 17 17 17 17 17 17 17 17 17 17 17 17 17 17 17 17 16 17 16 16 16 16 16 16 16 16 16 16 16 16 16 16 16 16 16 16 16 16 16 15
17 17 17 17 17 17 17 17 17 17 17 17 17 17 17 17 17 17 17 17 16 16 16 16 16 16 16 16 16 16 16 16 16 16 15 16 16 16 16 16 15 15 15
17 17 17 17 17 17 17 17 17 17 17 17 17 17 17 17 17 17 17 17 17 16 16 16 16 16 16 16 16 16 16 16 16 15 15 15 15 15 15 15 15 15 15
17 17 17 17 17 17 17 16 16 17 17 17 17 17 17 17 17 17 17 17 17 17 16 16 16 16 16 16 16 16 16 15 15 15 15 15 15 15 15 15 15 15 15
17 17 17 17 17 17 16 16 16 16 16 16 17 17 17 17 17 17 17 17 17 17 17 16 16 16 16 16 16 16 16 16 15 15 15 15 15 15 15 15 15 15 15
17 17 17 17 16 16 16 16 16 16 16 16 17 17 17 17 17 17 17 17 17 17 17 17 17 16 16 16 16 16 16 16 16 16 15 15 15 15 15 15 15 15 15
17 17 17 16 16 16 16 16 16 16 16 16 16 16 17 17 17 17 17 17 17 17 17 17 17 17 17 16 16 16 16 16 16 16 16 15 15 15 15 15 15 15 15
17 17 17 16 16 16 16 16 16 16 16 16 16 16 16 17 17 17 17 17 17 17 17 17 17 17 17 17 16 16 16 16 16 16 16 16 15 15 15 15 15 15 15
17 17 17 16 16 16 16 16 16 16 16 16 16 16 16 16 17 17 17 17 17 17 17 17 17 17 17 17 17 16 16 16 16 16 16 16 15 15 15 15 15 15 15
17 17 16 16 16 16 16 16 16 16 16 16 16 16 16 16 16 16 16 16 16 16 16 17 17 17 17 17 16 16 16 16 16 16 16 16 15 15 15 15 15 15 15
17 17 16 16 16 16 16 16 16 16 16 16 16 16 16 16 16 16 16 16 16 16 16 16 16 16 16 16 16 16 16 16 16 16 15 15 15 15 15 15 15 15 15
17 17 17 16 16 16 16 16 16 16 16 16 16 16 16 16 16 16 16 16 16 16 16 16 16 16 16 16 16 16 16 16 15 15 15 15 15 15 15 15 15 15 15
16 16 16 16 16 16 16 16 16 16 16 16 16 16 16 15 15 15 15 15 15 15 15 15 15 15 15 15 15 15 15 15 15 15 15 15 15 14 15 15 15 15 15
16 16 16 16 16 16 16 16 16 16 15 15 15 15 15 15 15 15 15 15 15 15 15 15 15 15 15 15 15 15 14 14 14 14 14 14 14 14 14 14 14 14 14
16 16 16 16 16 16 16 15 15 15 15 15 15 15 15 15 15 15 15 15 15 14 14 14 14 14 14 14 14 14 14 14 14 14 14 14 14 14 14 14 14 14 14
16 16 16 16 16 15 15 15 15 15 15 15 14 14 14 14 14 14 14 14 14 14 14 14 13 13 13 13 13 13 13 13 13 13 13 13 13 13 13 13 13 13 13
16 16 16 15 15 15 15 15 15 15 15 14 14 14 14 14 13 13 13 13 13 13 13 13 12 12 12 12 12 12 11 12 12 12 12 12 12 12 12 12 12 12 12
15 15 15 15 15 15 15 15 14 14 14 14 14 13 13 13 13 13 12 12 12 12 12 11 11 11 11 10 10 10 10 10 10 10 10 11 11 11 11 11 11 11 11
15 15 14 14 14 14 14 14 14 14 13 13 13 12 12 12 12 12 12 11 11 11 11 10 10 10 9 9 9 9 9 9 9 9 9 9 9 10 10 10 10 10 10
14 14 14 13 13 13 13 13 13 13 13 12 12 12 11 11 11 11 11 10 10 10 9 9 9 8 8 8 8 8 8 8 8 8 8 7 7 8 8 9 9 9 9
13 13 13 12 12 12 12 12 12 12 12 11 11 11 10 10 10 9 9 9 9 8 8 8 8 7 7 7 7 7 7 6 6 6 6 6 6 6 6 7 7 7 8
Wind_Speed
5 6 6 6 6 5 5 4 3 2 2 2 3 6 8 11 12 12 12 15 15 14 13 13 12 12 11 11 11 11 11 10 10 10 10 10 10 9 9 9 8 8 8
8 6 4 5 5 6 6 5 5 3 2 2 3 5 7 9 12 12 12 14 15 15 14 13 12 12 12 11 11 11 11 11 11 10 10 10 10 10 9 9 8 8 8
10 7 5 4 5 7 7 5 4 3 2 2 2 3 5 7 10 11 12 12 12 13 14 14 13 12 12 12 12 12 12 12 11 11 11 11 11 11 10 10 9 9 9
11 8 5 4 6 6 5 3 3 3 2 2 2 2 2 4 7 10 12 12 12 11 13 14 14 13 12 12 12 13 13 13 13 12 12 12 12 12 12 11 11 10 10
11 8 4 4 6 5 3 4 3 3 3 2 2 2 2 3 4 7 8 11 13 13 13 14 14 14 13 13 13 13 13 14 14 14 13 13 13 13 13 13 13 12 12
10 8 5 5 6 4 4 4 4 3 3 3 2 1 0 1 2 3 5 8 11 14 14 13 13 14 14 14 13 13 13 13 14 15 15 14 14 14 15 14 14 14 14
10 8 4 4 4 5 5 5 4 3 2 2 3 3 3 2 1 2 3 4 6 11 13 14 14 13 13 15 14 14 13 13 14 14 15 15 15 15 16 16 16 16 16
9 8 6 5 5 5 5 4 4 3 1 2 3 3 2 4 3 2 2 4 4 6 8 12 14 14 14 13 14 15 15 14 14 14 15 15 15 16 16 17 17 17 17
9 8 7 5 5 5 5 4 4 5 2 1 2 4 3 3 2 3 2 3 3 4 4 8 12 14 14 14 14 15 16 16 15 15 15 15 16 16 16 17 17 18 18
8 9 8 7 5 5 5 4 4 4 4 2 0 0 2 4 3 1 3 2 3 4 5 5 8 12 14 15 15 16 17 17 16 16 15 15 15 15 16 16 17 17 17
6 8 8 6 5 5 5 5 5 4 4 3 2 1 1 1 2 2 2 3 3 3 4 4 6 9 13 15 15 16 17 17 17 16 15 15 14 14 15 14 14 15 16
4 6 7 6 5 5 5 5 5 6 4 3 3 2 2 2 1 2 2 3 3 4 3 3 4 7 11 14 15 15 17 17 17 16 16 15 14 14 14 14 14 14 14
4 5 5 5 5 5 5 5 5 5 4 4 3 2 2 2 2 3 3 1 2 3 3 3 3 7 10 12 14 16 17 18 18 17 16 16 15 14 14 14 14 14 13
5 6 6 6 6 6 6 5 4 4 4 3 3 3 2 1 2 3 3 3 1 3 3 4 3 4 7 10 14 16 15 18 19 18 18 17 16 16 16 15 15 15 15
6 7 7 6 6 6 6 5 4 3 3 3 2 2 1 1 1 1 2 3 4 1 3 4 3 3 5 8 12 13 14 16 18 19 19 19 19 18 18 18 18 18 18
7 8 7 7 6 6 6 5 4 3 4 3 2 2 1 0 1 1 1 2 3 4 3 3 3 3 3 5 9 11 13 14 17 18 20 20 21 21 21 21 21 21 21
8 9 8 8 7 6 6 5 4 4 4 2 2 2 1 1 0 1 1 1 1 3 3 4 3 3 3 3 3 6 9 10 12 16 19 21 22 22 23 23 23 22 22
8 8 8 7 7 6 6 6 5 4 4 3 2 2 1 1 1 0 1 1 0 1 2 3 3 3 3 3 3 3 5 6 8 12 14 17 18 20 20 21 21 22 22
7 7 7 7 6 5 5 5 5 4 4 4 3 3 1 2 1 0 1 1 1 1 1 1 2 2 2 3 3 3 3 4 7 9 9 10 12 14 15 17 18 20 20
7 7 6 6 5 5 5 4 5 4 4 3 3 3 3 3 2 1 1 1 1 1 1 1 1 2 2 3 3 3 4 4 5 6 7 8 10 11 12 14 15 16 18
7 6 6 6 5 4 3 4 4 5 5 4 4 4 4 5 5 3 2 2 2 2 2 1 1 2 3 3 3 3 3 4 4 3 4 5 7 7 11 13 13 14 15
6 6 6 6 5 3 4 5 5 5 5 6 6 6 6 8 8 8 9 8 5 3 1 1 1 1 3 2 2 3 3 3 4 3 4 6 4 5 7 10 12 13 13
8 8 7 8 7 5 7 8 9 8 8 7 6 6 6 7 7 6 8 10 10 10 6 2 1 2 2 3 3 3 3 3 4 5 4 5 4 5 6 10 13 13 14
9 8 9 9 9 9 11 13 14 11 10 9 8 7 7 7 7 6 6 7 6 6 6 4 1 2 3 3 3 3 3 4 5 4 2 3 4 5 6 10 11 12 14
11 9 9 10 11 10 13 14 14 10 10 10 8 8 8 7 9 9 7 6 6 6 8 10 9 8 9 9 5 2 3 3 4 4 2 2 4 5 5 5 8 12 15
12 12 12 10 11 10 12 14 12 9 9 7 7 7 9 8 9 9 6 5 6 5 6 8 9 11 10 11 11 4 2 3 3 4 4 3 4 4 5 4 4 10 13
Wind_Direction
161 165 168 175 179 176 172 173 180 187 177 142 136 141 148 153 162 167 176 178 175 174 175 177 178 178 178 177 176 174 173 172 170 170 169 167 165 165 164 164 162 162 161
162 161 162 169 178 177 169 166 164 154 144 128 126 142 147 156 164 171 180 183 183 183 183 184 185 187 187 188 188 186 185 184 183 183 182 181 179 178 178 178 180 179 178
157 154 153 160 169 164 157 147 137 127 126 122 129 138 145 156 167 175 183 186 189 192 193 194 195 195 196 197 197 197 197 194 193 193 194 193 193 192 191 191 192 192 192
152 148 147 156 158 147 138 128 121 111 116 123 130 147 153 159 171 180 185 190 192 198 203 205 203 203 205 206 207 207 206 204 203 203 203 204 205 205 203 202 203 204 205
151 148 149 154 143 128 124 140 124 130 130 130 146 160 168 168 176 183 189 197 199 202 206 211 210 211 214 217 217 216 214 213 212 212 212 212 213 213 213 212 212 214 216
153 149 150 145 134 123 124 123 123 118 136 149 132 108 275 203 193 193 198 199 204 208 210 211 214 218 221 223 223 221 220 219 218 219 219 219 219 218 219 219 220 221 222
158 150 144 135 133 137 145 134 120 110 98 110 81 31 352 345 273 227 206 195 202 208 208 211 213 217 223 226 227 225 223 222 222 223 225 225 225 225 225 225 226 227 227
160 157 145 147 141 135 131 128 123 117 93 122 125 100 21 344 324 271 234 210 209 206 206 211 213 217 221 222 226 227 228 227 227 229 230 230 232 233 233 233 233 233 233
159 154 154 149 145 142 148 153 141 135 133 61 140 141 149 216 285 313 276 238 217 205 211 211 213 218 220 222 226 229 229 230 231 233 233 233 234 236 237 238 238 238 236
157 153 150 148 147 147 154 167 148 139 134 126 360 179 174 159 153 279 315 291 253 227 220 217 214 216 216 217 222 226 229 230 232 234 234 233 235 237 239 242 242 241 239
161 155 150 146 146 149 156 151 137 133 133 139 143 121 74 79 116 148 246 295 305 270 240 228 218 215 215 215 220 225 227 229 231 232 233 234 236 237 239 242 244 244 242
159 158 151 147 149 150 156 153 145 141 139 134 136 126 136 139 165 155 193 246 267 282 268 246 228 221 216 215 219 224 225 227 228 231 232 235 238 239 241 242 244 245 245
168 175 158 154 156 158 155 145 139 141 145 143 147 145 150 164 169 156 149 204 269 294 306 285 244 234 227 220 222 224 224 225 227 229 232 235 238 238 239 241 242 244 245
180 173 162 160 159 157 154 145 143 153 149 151 153 150 156 168 162 158 158 148 48 325 321 293 292 248 238 224 226 225 225 227 228 230 232 235 237 238 239 241 242 244 246
177 167 164 164 164 161 157 150 151 166 153 159 162 151 148 171 122 136 147 151 152 210 287 289 299 289 259 241 237 225 227 231 231 232 235 237 239 241 243 245 245 246 247
169 164 169 170 170 163 157 150 154 164 156 169 169 159 154 191 57 72 121 138 151 166 231 273 271 291 290 265 247 232 236 240 239 240 242 244 246 247 249 249 250 250 250
169 171 174 170 168 165 163 160 170 166 168 180 170 158 198 185 76 26 67 93 126 153 214 279 279 306 331 319 303 259 254 256 257 254 252 253 254 255 254 254 254 254 255
170 168 163 162 168 168 166 164 171 162 163 171 174 153 205 153 121 32 68 53 56 168 187 270 301 318 320 315 306 295 286 280 273 274 267 262 264 265 265 263 262 260 259
156 154 153 158 162 162 161 163 161 162 163 168 166 161 179 135 127 39 68 42 342 42 138 211 291 308 316 341 340 331 328 325 312 301 294 286 287 285 281 277 274 270 267
149 147 147 148 145 144 149 158 158 156 149 139 131 127 115 114 118 98 70 26 39 40 38 39 332 332 330 334 5 342 331 329 317 321 333 334 330 320 307 296 289 283 279
145 143 135 128 127 127 137 142 148 147 138 121 103 92 83 80 75 70 71 55 55 51 35 29 355 347 335 347 344 330 321 316 310 336 336 329 330 326 323 316 308 303 299
133 125 123 120 109 107 113 128 134 125 120 114 104 87 73 59 58 60 63 61 61 66 62 43 343 318 304 309 314 322 322 337 314 322 340 310 315 311 319 320 324 322 319
120 112 110 104 93 79 87 95 105 104 101 99 98 91 76 57 52 58 59 55 48 45 48 75 11 321 310 306 312 316 313 294 277 294 327 299 310 306 315 324 331 335 338
111 106 99 97 88 72 83 90 91 88 86 83 85 87 84 61 51 63 67 56 43 29 26 35 31 314 316 304 289 287 286 297 288 291 302 286 307 304 310 312 322 341 344
104 97 93 91 88 76 82 90 93 91 88 80 77 75 77 67 54 63 66 56 37 15 17 19 18 10 4 0 354 3 348 346 319 307 324 302 297 302 295 291 311 330 332
107 101 91 83 84 80 78 85 92 98 95 88 75 64 62 62 55 59 66 60 38 1 1 7 12 14 15 14 17 24 354 336 316 305 319 326 305 323 310 294 308 322 322
Height
1551 1553 1555 1557 1558 1560 1562 1563 1564 1566 1567 1568 1569 1570 1571 1572 1572 1573 1574 1574 1575 1576 1576 1577 1578 1578 1579 1580 1580 1581 1581 1582 1582 1583 1584 1584 1585 1585 1586 1586 1587 1587 1587
1551 1553 1555 1556 1558 1560 1562 1563 1565 1566 1567 1568 1569 1570 1571 1572 1572 1573 1574 1575 1575 1576 1577 1577 1578 1578 1579 1580 1580 1581 1581 1582 1582 1583 1584 1584 1585 1585 1586 1586 1587 1587 1587
1550 1552 1554 1556 1558 1559 1561 1563 1564 1566 1567 1568 1569 1570 1571 1572 1573 1573 1574 1575 1575 1576 1576 1577 1578 1578 1579 1579 1580 1580 1581 1582 1582 1583 1583 1584 1584 1585 1586 1586 1586 1587 1587
1550 1552 1554 1555 1557 1559 1561 1562 1564 1565 1567 1568 1569 1570 1571 1572 1573 1573 1574 1574 1575 1576 1576 1577 1577 1578 1578 1579 1579 1580 1580 1581 1581 1582 1582 1583 1584 1584 1585 1585 1586 1586 1587
1549 1551 1553 1555 1557 1558 1560 1562 1563 1565 1566 1568 1569 1570 1571 1572 1572 1573 1573 1574 1575 1575 1576 1576 1577 1577 1577 1578 1578 1579 1579 1580 1580 1581 1582 1582 1582 1583 1584 1584 1585 1585 1586
1548 1550 1552 1554 1556 1557 1559 1561 1563 1565 1566 1568 1569 1570 1570 1571 1572 1572 1573 1573 1574 1574 1575 1576 1576 1576 1576 1577 1577 1577 1578 1578 1579 1579 1580 1580 1581 1581 1582 1583 1583 1584 1584
1546 1548 1551 1553 1555 1556 1558 1560 1562 1564 1565 1567 1568 1569 1570 1571 1571 1572 1572 1572 1573 1574 1574 1574 1575 1575 1575 1575 1575 1576 1576 1576 1576 1577 1578 1578 1579 1579 1580 1580 1581 1582 1582
1545 1547 1549 1551 1553 1555 1557 1559 1561 1563 1564 1566 1567 1568 1569 1571 1570 1571 1571 1571 1572 1572 1573 1573 1573 1574 1574 1574 1574 1574 1574 1574 1574 1575 1575 1576 1576 1577 1577 1578 1578 1579 1579
1543 1546 1548 1550 1552 1554 1556 1558 1560 1562 1563 1565 1567 1568 1569 1569 1569 1570 1570 1571 1571 1571 1571 1572 1572 1572 1573 1573 1573 1573 1573 1572 1572 1573 1573 1573 1573 1574 1574 1575 1575 1575 1576
1542 1544 1547 1549 1551 1553 1555 1557 1559 1560 1562 1564 1565 1567 1568 1568 1568 1568 1569 1570 1570 1570 1570 1570 1571 1571 1571 1571 1571 1571 1571 1571 1571 1570 1570 1571 1571 1571 1571 1571 1572 1572 1572
1540 1543 1545 1547 1550 1552 1554 1555 1557 1559 1561 1563 1564 1565 1566 1567 1567 1568 1568 1569 1569 1569 1569 1569 1569 1569 1569 1569 1569 1569 1569 1569 1569 1568 1568 1568 1568 1568 1568 1568 1568 1568 1569
1539 1541 1543 1546 1548 1550 1552 1554 1556 1558 1560 1562 1563 1564 1565 1566 1566 1567 1567 1567 1567 1568 1568 1568 1568 1568 1568 1568 1568 1568 1567 1567 1567 1567 1566 1566 1566 1565 1565 1565 1565 1565 1565
1536 1539 1541 1544 1546 1549 1551 1553 1554 1556 1558 1560 1562 1563 1564 1565 1566 1566 1566 1566 1566 1566 1566 1566 1566 1566 1566 1566 1566 1566 1565 1565 1565 1564 1564 1564 1563 1563 1563 1562 1562 1562 1562
1535 1538 1540 1542 1545 1547 1549 1551 1553 1555 1557 1559 1560 1562 1563 1564 1564 1565 1565 1565 1564 1564 1564 1564 1564 1564 1564 1564 1564 1564 1563 1563 1563 1562 1562 1561 1561 1560 1560 1559 1559 1559 1559
1534 1536 1539 1541 1544 1546 1548 1550 1552 1554 1555 1557 1559 1560 1561 1562 1562 1563 1563 1563 1564 1562 1562 1562 1562 1562 1561 1561 1561 1561 1561 1561 1560 1560 1559 1558 1558 1557 1557 1556 1556 1555 1555
1532 1535 1537 1540 1542 1545 1547 1548 1550 1552 1554 1555 1556 1558 1559 1560 1560 1561 1561 1561 1561 1561 1560 1560 1560 1559 1559 1559 1559 1558 1558 1558 1557 1557 1556 1555 1554 1554 1553 1552 1552 1551 1551
1530 1533 1536 1539 1541 1543 1545 1547 1549 1550 1552 1553 1554 1556 1557 1557 1558 1558 1558 1559 1559 1558 1558 1557 1557 1557 1556 1556 1555 1555 1555 1554 1554 1553 1552 1551 1550 1549 1549 1548 1547 1547 1546
1529 1532 1535 1538 1540 1542 1544 1546 1547 1549 1550 1551 1553 1554 1555 1555 1556 1556 1556 1556 1556 1556 1555 1554 1554 1553 1553 1552 1552 1551 1551 1550 1549 1549 1548 1546 1546 1545 1544 1543 1542 1541 1540
1528 1531 1534 1536 1538 1540 1542 1544 1546 1547 1549 1550 1551 1552 1552 1553 1553 1553 1553 1553 1553 1552 1552 1551 1550 1550 1549 1548 1547 1547 1546 1545 1545 1544 1542 1541 1540 1539 1538 1537 1536 1535 1534
1526 1529 1532 1534 1536 1538 1541 1543 1544 1546 1547 1548 1549 1549 1550 1550 1550 1550 1550 1550 1549 1549 1548 1548 1547 1546 1545 1544 1543 1541 1540 1540 1539 1538 1537 1535 1534 1533 1532 1530 1530 1528 1527
1525 1528 1530 1533 1535 1537 1539 1540 1542 1543 1545 1545 1546 1547 1547 1547 1547 1547 1547 1546 1546 1545 1544 1544 1543 1541 1541 1539 1538 1536 1535 1533 1533 1532 1530 1529 1527 1526 1525 1524 1522 1521 1520
1524 1526 1529 1531 1533 1535 1537 1538 1540 1541 1542 1543 1544 1544 1544 1544 1544 1544 1543 1543 1542 1542 1540 1540 1539 1537 1536 1535 1533 1532 1530 1528 1527 1526 1524 1522 1521 1519 1518 1517 1515 1513 1512
1522 1525 1526 1529 1531 1533 1535 1536 1537 1538 1539 1540 1541 1541 1541 1542 1541 1541 1540 1540 1539 1538 1538 1537 1535 1534 1532 1531 1529 1528 1526 1524 1522 1520 1518 1515 1514 1512 1511 1510 1508 1507 1505
1520 1523 1525 1527 1529 1531 1533 1534 1535 1536 1537 1538 1539 1539 1539 1539 1539 1538 1538 1537 1536 1535 1534 1533 1532 1530 1529 1527 1525 1524 1522 1519 1518 1516 1513 1510 1508 1506 1505 1504 1502 1500 1499
1518 1521 1524 1526 1527 1529 1531 1533 1534 1534 1535 1536 1537 1537 1537 1537 1536 1536 1535 1534 1534 1533 1532 1531 1529 1528 1526 1524 1522 1520 1518 1515 1513 1511 1509 1506 1503 1500 1498 1497 1496 1494 1492
1517 1520 1523 1525 1527 1528 1530 1532 1533 1533 1534 1534 1535 1535 1535 1534 1534 1533 1533 1532 1531 1531 1530 1528 1527 1525 1524 1522 1520 1517 1515 1513 1510 1507 1506 1503 1499 1496 1491 1489 1488 1487 1484